Weather History for Portage Glacier, AK

Change the Weather History Date:

Thursday, January 24, 2013

  Actual Average Record
Temperature  
Mean Temperature 34 °F -  
Max Temperature 39 °F - - ()
Min Temperature 30 °F - - ()
Degree Days  
Heating Degree Days 30    
Moisture  
Dew Point 33 °F    
Average Humidity 89    
Maximum Humidity 100    
Minimum Humidity 79    
Precipitation  
Precipitation 0.31 in - - ()
Sea Level Pressure  
Sea Level Pressure 29.48 in    
Wind  
Wind Speed 9 mph (ESE)    
Max Wind Speed 18 mph    
Max Gust Speed 30 mph    
Visibility 8 miles    
Events Rain    
T = Trace of Precipitation, MM = Missing Value Source: NWS Daily Summary

Daily Weather History Graph

Daily Weather History Graph

Search for Another Location

Airport:

Trip Planner

Search our weather history database for the weather conditions in past years. The results will help you decide how hot, cold, wet, or windy it might be!

Date:

Astronomy

Jan. 24, 2013 Rise Set
Actual Time 9:30 AM AKST 4:45 PM AKST
Civil Twilight 8:39 AM AKST 5:36 PM AKST
Nautical Twilight 7:45 AM AKST 6:30 PM AKST
Astronomical Twilight 6:55 AM AKST 7:20 PM AKST
Moon 2:46 PM AKST (1/24) 7:47 AM AKST (1/24)
Length of Visible Light 8h 57m
Length of Day
7h 14m
Waxing Gibbous, 95% of the Moon is Illuminated
Jan 24
Waxing Gibbous
Jan 26
Full
Feb 3
Last Quarter
Feb 9
New
Feb 17
First Quarter

Hourly Weather History & Observations

Time (AKST) Temp. Windchill Dew Point Humidity Pressure Visibility Wind Dir Wind Speed Gust Speed Precip Events Conditions
12:53 AM 37.0 °F 27.4 °F 34.0 °F 89% 29.40 in 4.0 mi SE 17.3 mph 29.9 mph 0.11 in Rain Rain
1:53 AM 39.0 °F 31.0 °F 35.1 °F 86% 29.41 in 4.0 mi East 13.8 mph 25.3 mph 0.05 in Rain Light Rain
3:41 AM 37.9 °F 32.1 °F 34.0 °F 86% 29.44 in 7.0 mi ESE 8.1 mph 20.7 mph 0.03 in Rain Light Rain
3:53 AM 37.9 °F 32.1 °F 34.0 °F 86% 29.45 in 8.0 mi ESE 8.1 mph 19.6 mph 0.04 in Rain Light Rain
4:12 AM 37.9 °F 31.5 °F 34.0 °F 86% 29.45 in 7.0 mi ESE 9.2 mph 16.1 mph 0.00 in Rain Light Rain
4:49 AM 37.4 °F 32.1 °F 33.8 °F 87% 29.46 in 7.0 mi ESE 6.9 mph - 0.01 in Rain Light Rain
4:53 AM 37.0 °F 32.4 °F 34.0 °F 89% 29.46 in 7.0 mi Variable 5.8 mph - 0.01 in Rain Light Rain
5:46 AM 37.9 °F 33.5 °F 34.0 °F 86% 29.46 in 7.0 mi Variable 5.8 mph - 0.02 in Rain Light Rain
5:53 AM 37.0 °F 30.4 °F 34.0 °F 89% 29.47 in 6.0 mi SE 9.2 mph - 0.02 in Rain Light Rain
6:03 AM 37.9 °F 30.9 °F 34.0 °F 86% 29.46 in 7.0 mi ESE 10.4 mph 21.9 mph 0.00 in Rain Light Rain
6:53 AM 37.0 °F 31.6 °F 34.0 °F 89% 29.49 in 4.0 mi ESE 6.9 mph - 0.03 in Rain Light Rain
7:46 AM 37.9 °F 29.6 °F 34.0 °F 86% 29.48 in 7.0 mi East 13.8 mph 26.5 mph 0.01 in Rain Light Rain
7:53 AM 37.9 °F 31.5 °F 34.0 °F 86% 29.49 in 7.0 mi ESE 9.2 mph 26.5 mph 0.01 in Rain Light Rain
8:22 AM 37.0 °F 28.1 °F 34.0 °F 89% 29.49 in 4.0 mi East 15.0 mph 24.2 mph 0.02 in Rain Light Rain
8:53 AM 37.9 °F 28.5 °F 33.1 °F 83% 29.50 in 10.0 mi East 17.3 mph 27.6 mph 0.04 in Rain Light Rain
9:53 AM 37.9 °F 28.2 °F 32.0 °F 79% 29.52 in 10.0 mi East 18.4 mph 25.3 mph 0.00 in   Overcast
10:53 AM 37.9 °F 29.6 °F 32.0 °F 79% 29.53 in 10.0 mi East 13.8 mph 20.7 mph 0.00 in   Unknown
11:53 AM 37.9 °F 32.1 °F 33.1 °F 83% 29.54 in 10.0 mi ESE 8.1 mph - 0.00 in   Unknown
12:53 PM 37.9 °F 33.5 °F 33.1 °F 83% 29.54 in 10.0 mi Variable 5.8 mph - 0.00 in   Overcast
1:01 PM 37.0 °F 32.4 °F 34.0 °F 89% 29.54 in 10.0 mi Variable 5.8 mph - N/A   Overcast
1:25 PM 37.9 °F 32.7 °F 33.1 °F 83% 29.54 in 10.0 mi Variable 6.9 mph - N/A   Overcast
1:53 PM 37.0 °F 32.4 °F 33.1 °F 86% 29.54 in 10.0 mi Variable 5.8 mph - N/A   Overcast
2:53 PM 37.0 °F 31.6 °F 33.1 °F 86% 29.52 in 10.0 mi SSE 6.9 mph - N/A   Mostly Cloudy
3:15 PM 36.0 °F 31.1 °F 34.0 °F 93% 29.52 in 10.0 mi SSE 5.8 mph - N/A   Overcast
3:53 PM 37.0 °F - 33.1 °F 86% 29.52 in 10.0 mi Calm Calm - N/A   Overcast
4:10 PM 36.0 °F 33.3 °F 33.1 °F 89% 29.51 in 10.0 mi Variable 3.5 mph - N/A   Overcast
4:25 PM 36.0 °F 32.1 °F 33.1 °F 89% 29.51 in 10.0 mi Variable 4.6 mph - N/A   Overcast
4:53 PM 35.1 °F 29.3 °F 34.0 °F 96% 29.50 in 10.0 mi ESE 6.9 mph - N/A   Mostly Cloudy
5:53 PM 34.0 °F 26.6 °F 33.1 °F 96% 29.50 in 10.0 mi ENE 9.2 mph - N/A   Overcast
6:53 PM 34.0 °F 31.0 °F 33.1 °F 96% 29.49 in 10.0 mi ESE 3.5 mph - 0.00 in   Mostly Cloudy
7:53 PM 34.0 °F 28.8 °F 33.1 °F 96% 29.47 in 10.0 mi East 5.8 mph - 0.00 in Rain Light Rain
8:53 PM 34.0 °F 29.8 °F 33.1 °F 96% 29.46 in 10.0 mi East 4.6 mph - 0.00 in   Scattered Clouds
9:53 PM 33.1 °F - 32.0 °F 96% 29.45 in 10.0 mi Calm Calm - N/A   Overcast
10:17 PM 30.9 °F - 30.9 °F 100% 29.45 in 10.0 mi Calm Calm - N/A   Overcast
10:42 PM 30.0 °F - 30.0 °F 100% 29.44 in 10.0 mi Calm Calm - N/A   Scattered Clouds
10:53 PM 30.0 °F - 30.0 °F 100% 29.44 in 10.0 mi Calm Calm - N/A   Mostly Cloudy
11:53 PM 30.9 °F 26.2 °F 30.9 °F 100% 29.42 in 10.0 mi SSE 4.6 mph - N/A   Overcast